EW9339 Weather Reports


Display with metric or nautical units.
time (UTC)temp
F
wind
direction
speed
MPH
gust
MPH
rain 1hr
in
rain 24hr
in
rain mn
in
humidity
%
barometer
mb
20260507193057 0 0.0 0.0 0.00 0.00 0.00 1006.4
20260507191531 60 239 2.0 0.0 0.00 0.00 0.00 81 1006.4
20260507190019 60 291 2.0 0.0 0.00 0.00 0.00 82 1006.4
20260507184517 60 325 1.0 0.0 0.00 0.00 0.00 82 1006.3
20260507183014 60 265 2.0 0.0 0.00 0.00 0.00 83 1006.3
20260507181552 60 325 3.0 0.0 0.00 0.00 0.00 83 1006.3
20260507180044 60 252 3.0 0.0 0.00 0.00 0.00 83 1006.2
20260507174601 60 46 5.0 0.0 0.00 0.00 0.00 83 1006.2
20260507173024 60 340 4.0 0.0 0.00 0.00 0.00 83 1006.1
20260507171607 60 300 3.0 0.0 0.00 0.00 0.00 83 1006.2
20260507170038 60 286 4.0 0.0 0.00 0.00 0.00 84 1006.3
20260507164510 60 337 6.0 0.0 0.00 0.00 0.00 84 1006.4
20260507163025 60 346 5.0 0.0 0.00 0.00 0.00 83 1006.6
20260507161552 60 323 5.0 0.0 0.00 0.00 0.00 83 1006.7
20260507160034 61 337 6.0 0.0 0.00 0.00 0.00 82 1006.6
20260507154543 61 93 3.0 0.0 0.00 0.00 0.00 82 1006.7
20260507153101 61 342 5.0 0.0 0.00 0.00 0.00 82 1006.4
20260507151516 60 321 5.0 0.0 0.00 0.00 0.00 83 1006.6
20260507150002 60 342 6.0 0.0 0.00 0.00 0.00 83 1006.7
20260507144537 59 326 7.0 0.0 0.00 0.00 0.00 83 1006.7
20260507143023 59 335 9.0 0.0 0.00 0.00 0.00 83 1007.3
20260507141547 59 339 12.0 0.0 0.00 0.00 0.00 83 1007.4
20260507140100 59 336 12.0 0.0 0.00 0.00 0.00 83 1007.3
20260507134528 59 331 16.0 0.0 0.00 0.00 0.00 84 1007.1
20260507133035 59 336 18.0 0.0 0.00 0.00 0.00 84 1007.1
20260507131603 59 331 18.0 0.0 0.00 0.00 0.00 85 1007.2
20260507130005 59 330 18.0 0.0 0.00 0.00 0.00 84 1007.1
20260507124546 59 338 17.0 0.0 0.00 0.00 0.00 84 1007.4
20260507123059 59 331 17.0 0.0 0.00 0.00 0.00 84 1007.6
20260507121507 59 317 16.0 0.0 0.00 0.00 0.00 84 1007.7
20260507120050 59 344 14.0 0.0 0.00 0.00 0.00 84 1007.9
20260507114514 58 330 15.0 0.0 0.00 0.00 0.00 84 1008.0
20260507113050 59 342 13.0 0.0 0.00 0.00 0.00 84 1008.1
20260507111518 59 334 9.0 0.0 0.00 0.00 0.00 84 1008.0
20260507110017 59 46 6.0 0.0 0.00 0.00 0.00 84 1007.9
20260507104607 58 9 7.0 0.0 0.00 0.00 0.00 83 1008.0
20260507103043 58 340 7.0 0.0 0.00 0.00 0.00 82 1008.0
20260507101557 58 340 7.0 0.0 0.00 0.00 0.00 81 1007.9
20260507100109 59 309 7.0 0.0 0.00 0.00 0.00 80 1007.9
20260507094554 59 326 7.0 0.0 0.00 0.00 0.00 79 1007.9
20260507093031 59 25 6.0 0.0 0.00 0.00 0.00 78 1007.9
20260507091546 61 47 4.0 0.0 0.00 0.00 0.00 78 1007.9
20260507090115 60 151 2.0 0.0 0.00 0.00 0.00 79 1008.1
20260507084515 59 120 4.0 0.0 0.00 0.00 0.00 80 1008.2
20260507083033 59 115 4.0 0.0 0.00 0.00 0.00 82 1008.2
20260507081551 58 153 3.0 0.0 0.00 0.00 0.00 84 1008.2
20260507080100 57 68 3.0 0.0 0.00 0.00 0.00 85 1008.4
20260507074600 56 130 5.0 0.0 0.00 0.00 0.00 86 1008.4
20260507073058 0 0.0 0.0 0.00 0.00 0.00 1008.4
20260507071534 0 0.0 0.0 0.00 0.00 0.00 1008.4
20260507070039 0 0.0 0.0 0.00 0.00 0.00 1008.5
20260507064525 0 0.0 0.0 0.00 0.00 0.00 1008.5
20260507063010 0 0.0 0.0 0.00 0.00 0.00 1008.5
20260507061513 0 0.0 0.0 0.00 0.00 0.00 1008.6
20260507060103 0 0.0 0.0 0.00 0.00 0.00 1008.6
20260507054525 0 0.0 0.0 0.00 0.00 0.00 1008.6
20260507053044 0 0.0 0.0 0.00 0.00 0.00 1008.6
20260507051511 0 0.0 0.0 0.00 0.00 0.00 1008.7
20260507050048 0 0.0 0.0 0.00 0.00 0.00 1008.7
20260507044546 0 0.0 0.0 0.00 0.00 0.00 1008.8
20260507043108 0 0.0 0.0 0.00 0.00 0.00 1008.9
20260507041544 0 0.0 0.0 0.00 0.00 0.00 1009.1
20260507040053 0 0.0 0.0 0.00 0.00 0.00 1009.1
20260507034553 0 0.0 0.0 0.00 0.00 0.00 1009.1
20260507033059 0 0.0 0.0 0.00 0.00 0.00 1009.2
20260507031541 0 0.0 0.0 0.00 0.00 0.00 1009.2
20260507030101 0 0.0 0.0 0.00 0.00 0.00 1009.1
20260507024545 0 0.0 0.0 0.00 0.00 0.00 1009.3
20260507023029 0 0.0 0.0 0.00 0.00 0.00 1009.3
20260507021539 0 0.0 0.0 0.00 0.00 0.00 1009.4
20260507020018 0 0.0 0.0 0.00 0.00 0.00 1009.5
20260507014505 0 0.0 0.0 0.00 0.00 0.00 1009.5
20260507013035 0 0.0 0.0 0.00 0.00 0.00 1009.6
20260507011533 0 0.0 0.0 0.00 0.00 0.00 1009.8
20260507010030 0 0.0 0.0 0.00 0.00 0.00 1009.9
20260507004522 0 0.0 0.0 0.00 0.00 0.00 1010.0
20260507003103 0 0.0 0.0 0.00 0.00 0.00 1010.1
20260507001605 0 0.0 0.0 0.00 0.00 0.00 1010.2
20260507000056 0 0.0 0.0 0.00 0.00 0.00 1010.3
20260506234540 0 0.0 0.0 0.00 0.00 0.00 1010.4
20260506233047 0 0.0 0.0 0.00 0.00 0.00 1010.5
20260506231512 0 0.0 0.0 0.00 0.00 0.00 1010.5
20260506230012 0 0.0 0.0 0.00 0.00 0.00 1010.5
20260506224549 0 0.0 0.0 0.00 0.00 0.00 1010.6
20260506223002 0 0.0 0.0 0.00 0.00 0.00 1010.9
20260506221536 0 0.0 0.0 0.00 0.00 0.00 1011.1
20260506220038 0 0.0 0.0 0.00 0.00 0.00 1011.2
20260506214532 0 0.0 0.0 0.00 0.00 0.00 1011.2
20260506213035 0 0.0 0.0 0.00 0.00 0.00 1011.3
20260506211501 0 0.0 0.0 0.00 0.00 0.00 1011.3
20260506210049 0 0.0 0.0 0.00 0.00 0.00 1011.3
20260506204533 0 0.0 0.0 0.00 0.00 0.00 1011.3
20260506203017 0 0.0 0.0 0.00 0.00 0.00 1011.1
20260506201606 0 0.0 0.0 0.00 0.00 0.00 1011.1
20260506200033 0 0.0 0.0 0.00 0.00 0.00 1011.1
20260506194605 0 0.0 0.0 0.00 0.00 0.00 1010.9